Regional Weather Roundup
Issued by NWS

Home | Current Version | Previous Version | Graphics & Text | Print | Product List | Glossary On
Versions: 1 2 3 4 5 6 7 8 9 10 11 12 13 14 15 16 17 18 19 20 21 22 23 24 25 26 27 28 29 30 31 32 33 34 35 36 37 38 39 40 41 42 43 44 45 46 47 48 49 50
000
ASUS43 KFSD 231802
RWRSD

WEATHER ROUNDUP FOR SOUTH DAKOTA
NATIONAL WEATHER SERVICE SIOUX FALLS SD
100 PM CDT FRI JUN 23 2017

NOTE: "FAIR" INDICATES FEW OR NO CLOUDS BELOW 12,000 FEET WITH NO
SIGNIFICANT WEATHER AND/OR OBSTRUCTIONS TO VISIBILITY.


SDZ001>005-009-010-012>017-231900-
NORTHWEST AND NORTH CENTRAL SOUTH DAKOTA

CITY           SKY/WX    TMP DP  RH WIND       PRES   REMARKS
BUFFALO          N/A     63  30  28 NW29G40   30.11S
FAITH            N/A     64  34  32 NW29G39   30.12F
MOBRIDGE       SUNNY     67  35  30 NW28G36   30.05F
$$

SDZ012>016-024>037-041>051-057-063-072>074-231900-
SOUTHWEST AND SOUTH CENTRAL SOUTH DAKOTA

CITY           SKY/WX    TMP DP  RH WIND       PRES   REMARKS
RAPID CTY ARPT SUNNY     65  35  33 N23G32    30.18F
PIERRE         SUNNY     65  38  36 NW26G36   30.09S
CUSTER         SUNNY     59  30  33 W10G22    30.22F
ELLSWORTH AFB  MOSUNNY   64  35  33 NW23G33   30.18F
PHILIP         MOSUNNY   68  37  32 NW21G33   30.13F
PINE RIDGE     MOSUNNY   67  42  40 NW8       30.19F
SPEARFISH      FAIR      59  36  41 NW17      30.23S
$$

SDZ004>011-016>023-039-040-231900-
NORTHEAST SOUTH DAKOTA

CITY           SKY/WX    TMP DP  RH WIND       PRES   REMARKS
ABERDEEN       CLOUDY    62  46  55 W20G29    30.01S
WATERTOWN      CLOUDY    59  49  69 NW21G28   29.98S
BROOKINGS      CLOUDY    61  49  64 NW15G23   29.99S
SISSETON         N/A     64  49  57 NW24G33   29.94R
$$

SDZ017-020-022-023-036>040-048>070-231900-
SOUTHEAST SOUTH DAKOTA

CITY           SKY/WX    TMP DP  RH WIND       PRES   REMARKS
SIOUX FALLS    CLOUDY    63  53  70 NW16G22   29.99F
HURON          CLOUDY    65  46  50 NW26G37   30.02S
CHAMBERLAIN    PTSUNNY   67  45  45 NW18G26   30.07F
MITCHELL       CLOUDY    68  46  45 NW16G31   30.03S
YANKTON        PTSUNNY   67  49  52 NW25G31   30.03S
$$

ABBREVIATIONS USED IN REMARKS
   TC - TEMPERATURE IN CELSIUS
  WCI - WIND CHILL INDEX
   HX - HEAT INDEX
  VSB - VISIBILITY





USA.gov is the U.S. government's official web portal to all federal, state and local government web resources and services.